OK1VCF-8 Weather Reports


time (UTC)temp
C
wind
direction
speed
KPH
gust
KPH
rain 1hr
cm
rain 24hr
cm
rain mn
cm
humidity
%
barometer
mb
20260905235206 15 0 0.0 0.0 0.00 0.00 0.00 66 1025.5
20260905234438 15 0 0.0 0.0 0.00 0.00 0.00 67 1025.6
20260905233708 15 0 0.0 0.0 0.00 0.00 0.00 66 1025.4
20260905232940 15 0 0.0 0.0 0.00 0.00 0.00 65 1025.4
20260905232209 15 0 0.0 0.0 0.00 0.00 0.00 64 1025.4
20260905231449 15 0 0.0 0.0 0.00 0.00 0.00 65 1025.4
20260905230732 15 0 0.0 0.0 0.00 0.00 0.00 65 1025.2
20260905230015 15 0 0.0 0.0 0.00 0.00 0.00 64 1025.2
20260905225258 15 0 0.0 0.0 0.00 0.00 0.00 64 1025.2
20260905224541 15 0 0.0 0.0 0.00 0.00 0.00 64 1025.1
20260905223824 15 0 0.0 0.0 0.00 0.00 0.00 62 1025.0
20260905223108 15 0 0.0 0.0 0.00 0.00 0.00 62 1025.2
20260905222106 15 0 0.0 0.0 0.00 0.00 0.00 60 1025.0
20260905221349 16 0 0.0 0.0 0.00 0.00 0.00 59 1024.8
20260905220633 16 0 0.0 0.0 0.00 0.00 0.00 59 1025.1
20260905215915 16 0 0.0 0.0 0.00 0.00 0.00 58 1025.0
20260905215159 16 0 0.0 0.0 0.00 0.00 0.00 58 1024.9
20260905214442 16 0 0.0 0.0 0.00 0.00 0.00 59 1024.8
20260905213725 16 0 0.0 0.0 0.00 0.00 0.00 59 1024.8
20260905213008 16 0 0.0 0.0 0.00 0.00 0.00 57 1024.7
20260905212251 16 0 0.0 0.0 0.00 0.00 0.00 56 1024.6
20260905211533 16 0 0.0 0.0 0.00 0.00 0.00 56 1024.5
20260905210815 17 0 0.0 0.0 0.00 0.00 0.00 54 1024.5
20260905210057 16 0 0.0 0.0 0.00 0.00 0.00 54 1024.5
20260905205339 17 0 0.0 0.0 0.00 0.00 0.00 54 1024.4
20260905204620 16 0 0.0 0.0 0.00 0.00 0.00 54 1024.4
20260905203902 16 0 0.0 0.0 0.00 0.00 0.00 54 1024.4
20260905201433 16 0 0.0 0.0 0.00 0.00 0.00 56 1024.0
20260905200716 16 0 0.0 0.0 0.00 0.00 0.00 56 1024.0
20260905195956 16 0 0.0 0.0 0.00 0.00 0.00 59 1023.8
20260905195238 16 0 0.0 0.0 0.00 0.00 0.00 58 1023.8
20260905194521 16 0 0.0 0.0 0.00 0.00 0.00 58 1023.7
20260905193802 16 0 0.0 0.0 0.00 0.00 0.00 57 1023.4
20260905193043 16 0 0.0 0.0 0.00 0.00 0.00 56 1023.4
20260905192322 17 0 0.0 0.0 0.00 0.00 0.00 55 1023.4
20260905191603 17 0 0.0 0.0 0.00 0.00 0.00 54 1023.3
20260905190843 16 0 0.0 0.0 0.00 0.00 0.00 58 1023.1
20260905190125 17 0 0.0 0.0 0.00 0.00 0.00 56 1023.0
20260905185405 17 0 0.0 0.0 0.00 0.00 0.00 56 1023.1
20260905184647 17 0 0.0 0.0 0.00 0.00 0.00 54 1022.8
20260905183641 18 0 0.0 0.0 0.00 0.00 0.00 53 1022.8
20260905182922 17 0 0.0 0.0 0.00 0.00 0.00 53 1022.9
20260905182203 18 0 0.0 0.0 0.00 0.00 0.00 53 1022.8
20260905181443 18 0 0.0 0.0 0.00 0.00 0.00 52 1022.6
20260905180723 18 0 0.0 0.0 0.00 0.00 0.00 51 1022.5
20260905180003 18 0 0.0 0.0 0.00 0.00 0.00 50 1022.4
20260905175244 18 0 0.0 0.0 0.00 0.00 0.00 49 1022.2
20260905174527 19 0 0.0 0.0 0.00 0.00 0.00 48 1022.1
20260905173808 19 0 0.0 0.0 0.00 0.00 0.00 48 1021.9
20260905173049 20 0 0.0 0.0 0.00 0.00 0.00 47 1021.8
20260905172330 20 0 0.0 0.0 0.00 0.00 0.00 46 1021.8
20260905171611 20 0 0.0 0.0 0.00 0.00 0.00 46 1021.6
20260905170853 20 0 0.0 0.0 0.00 0.00 0.00 46 1021.6
20260905170135 21 0 0.0 0.0 0.00 0.00 0.00 45 1021.4
20260905165415 21 0 0.0 0.0 0.00 0.00 0.00 44 1021.3
20260905164412 21 0 0.0 0.0 0.00 0.00 0.00 44 1021.2
20260905163653 23 0 0.0 0.0 0.00 0.00 0.00 38 1021.0
20260905162934 24 0 0.0 0.0 0.00 0.00 0.00 37 1021.0
20260905162214 24 0 0.0 0.0 0.00 0.00 0.00 37 1020.9
20260905161454 26 0 0.0 0.0 0.00 0.00 0.00 35 1020.8
20260905160734 25 0 0.0 0.0 0.00 0.00 0.00 36 1020.6
20260905160014 25 0 0.0 0.0 0.00 0.00 0.00 36 1020.6
20260905155256 25 0 0.0 0.0 0.00 0.00 0.00 37 1020.6
20260905154536 23 0 0.0 0.0 0.00 0.00 0.00 40 1020.4
20260905153818 23 0 0.0 0.0 0.00 0.00 0.00 40 1020.4
20260905153059 25 0 0.0 0.0 0.00 0.00 0.00 36 1020.4
20260905152341 24 0 0.0 0.0 0.00 0.00 0.00 38 1020.4
20260905151621 25 0 0.0 0.0 0.00 0.00 0.00 36 1020.4
20260905150903 23 0 0.0 0.0 0.00 0.00 0.00 39 1020.2
20260905150143 23 0 0.0 0.0 0.00 0.00 0.00 40 1020.4
20260905145137 23 0 0.0 0.0 0.00 0.00 0.00 40 1020.1
20260905144418 23 0 0.0 0.0 0.00 0.00 0.00 40 1020.3
20260905143659 23 0 0.0 0.0 0.00 0.00 0.00 41 1020.2
20260905142939 23 0 0.0 0.0 0.00 0.00 0.00 40 1020.2
20260905142220 23 0 0.0 0.0 0.00 0.00 0.00 40 1020.2
20260905140033 23 0 0.0 0.0 0.00 0.00 0.00 41 1020.3
20260905133853 22 0 0.0 0.0 0.00 0.00 0.00 42 1020.3
20260905133132 22 0 0.0 0.0 0.00 0.00 0.00 43 1020.2
20260905132412 22 0 0.0 0.0 0.00 0.00 0.00 44 1020.2
20260905131655 22 0 0.0 0.0 0.00 0.00 0.00 44 1020.4
20260905130935 22 0 0.0 0.0 0.00 0.00 0.00 44 1020.2
20260905125928 22 0 0.0 0.0 0.00 0.00 0.00 44 1020.4
20260905125154 22 0 0.0 0.0 0.00 0.00 0.00 43 1020.4
20260905124417 22 0 0.0 0.0 0.00 0.00 0.00 42 1020.4
20260905123641 22 0 0.0 0.0 0.00 0.00 0.00 42 1020.5
20260905122905 23 0 0.0 0.0 0.00 0.00 0.00 40 1020.5
20260905122130 22 0 0.0 0.0 0.00 0.00 0.00 41 1020.6
20260905121356 22 0 0.0 0.0 0.00 0.00 0.00 40 1020.7
20260905120624 23 0 0.0 0.0 0.00 0.00 0.00 41 1020.6
20260905115852 23 0 0.0 0.0 0.00 0.00 0.00 42 1020.6
20260905115121 23 0 0.0 0.0 0.00 0.00 0.00 42 1020.7
20260905114348 23 0 0.0 0.0 0.00 0.00 0.00 42 1020.8
20260905113610 23 0 0.0 0.0 0.00 0.00 0.00 44 1020.8
20260905112836 22 0 0.0 0.0 0.00 0.00 0.00 45 1020.8
20260905112105 21 0 0.0 0.0 0.00 0.00 0.00 48 1020.8
20260905111338 21 0 0.0 0.0 0.00 0.00 0.00 48 1020.8
20260905110335 21 0 0.0 0.0 0.00 0.00 0.00 50 1021.0
20260905105613 21 0 0.0 0.0 0.00 0.00 0.00 51 1020.8
20260905104854 21 0 0.0 0.0 0.00 0.00 0.00 50 1020.8
20260905104132 22 0 0.0 0.0 0.00 0.00 0.00 50 1020.8
20260905103413 21 0 0.0 0.0 0.00 0.00 0.00 52 1020.8
20260905102654 22 0 0.0 0.0 0.00 0.00 0.00 50 1020.8
20260905101933 21 0 0.0 0.0 0.00 0.00 0.00 54 1020.8
20260905101215 21 0 0.0 0.0 0.00 0.00 0.00 52 1020.9
20260905100455 21 0 0.0 0.0 0.00 0.00 0.00 53 1020.8
20260905095735 20 0 0.0 0.0 0.00 0.00 0.00 56 1021.0
20260905095015 21 0 0.0 0.0 0.00 0.00 0.00 56 1020.8
20260905094256 21 0 0.0 0.0 0.00 0.00 0.00 56 1021.0
20260905093536 20 0 0.0 0.0 0.00 0.00 0.00 58 1021.0
20260905092816 20 0 0.0 0.0 0.00 0.00 0.00 60 1020.9
20260905092056 20 0 0.0 0.0 0.00 0.00 0.00 57 1021.0
20260905091053 20 0 0.0 0.0 0.00 0.00 0.00 58 1021.0
20260905090334 20 0 0.0 0.0 0.00 0.00 0.00 58 1021.2
20260905085614 19 0 0.0 0.0 0.00 0.00 0.00 58 1020.9
20260905084853 18 0 0.0 0.0 0.00 0.00 0.00 62 1020.9
20260905084132 18 0 0.0 0.0 0.00 0.00 0.00 62 1021.0
20260905083412 18 0 0.0 0.0 0.00 0.00 0.00 64 1021.0
20260905082651 17 0 0.0 0.0 0.00 0.00 0.00 66 1021.0
20260905081931 17 0 0.0 0.0 0.00 0.00 0.00 66 1021.0
20260905081213 17 0 0.0 0.0 0.00 0.00 0.00 70 1020.9
20260905080453 17 0 0.0 0.0 0.00 0.00 0.00 70 1020.8
20260905075731 17 0 0.0 0.0 0.00 0.00 0.00 70 1020.8
20260905075012 17 0 0.0 0.0 0.00 0.00 0.00 72 1020.6
20260905074252 16 0 0.0 0.0 0.00 0.00 0.00 72 1020.5
20260905073534 16 0 0.0 0.0 0.00 0.00 0.00 74 1020.4
20260905072814 16 0 0.0 0.0 0.00 0.00 0.00 73 1020.3
20260905071810 16 0 0.0 0.0 0.00 0.00 0.00 75 1020.2
20260905071048 16 0 0.0 0.0 0.00 0.00 0.00 76 1020.4
20260905070321 16 0 0.0 0.0 0.00 0.00 0.00 77 1020.4
20260905065552 16 0 0.0 0.0 0.00 0.00 0.00 78 1020.6
20260905064826 16 0 0.0 0.0 0.00 0.00 0.00 78 1020.4
20260905064105 16 0 0.0 0.0 0.00 0.00 0.00 80 1020.4
20260905063341 16 0 0.0 0.0 0.00 0.00 0.00 82 1020.4
20260905062615 16 0 0.0 0.0 0.00 0.00 0.00 82 1020.4
20260905061847 16 0 0.0 0.0 0.00 0.00 0.00 82 1020.3
20260905061121 15 0 0.0 0.0 0.00 0.00 0.00 85 1020.2
20260905060357 14 0 0.0 0.0 0.00 0.00 0.00 86 1020.0
20260905055634 14 0 0.0 0.0 0.00 0.00 0.00 88 1019.9
20260905054912 14 0 0.0 0.0 0.00 0.00 0.00 90 1019.8
20260905054152 14 0 0.0 0.0 0.00 0.00 0.00 90 1019.6
20260905053433 13 0 0.0 0.0 0.00 0.00 0.00 92 1019.6
20260905052429 13 0 0.0 0.0 0.00 0.00 0.00 92 1019.6
20260905051710 13 0 0.0 0.0 0.00 0.00 0.00 92 1019.5
20260905050952 13 0 0.0 0.0 0.00 0.00 0.00 92 1019.4
20260905050235 13 0 0.0 0.0 0.00 0.00 0.00 92 1019.2
20260905045517 13 0 0.0 0.0 0.00 0.00 0.00 92 1019.1
20260905044758 13 0 0.0 0.0 0.00 0.00 0.00 92 1019.0
20260905044039 13 0 0.0 0.0 0.00 0.00 0.00 92 1018.8
20260905043321 13 0 0.0 0.0 0.00 0.00 0.00 92 1018.8
20260905042603 13 0 0.0 0.0 0.00 0.00 0.00 92 1018.7
20260905041842 13 0 0.0 0.0 0.00 0.00 0.00 91 1018.4
20260905041125 13 0 0.0 0.0 0.00 0.00 0.00 91 1018.0
20260905040405 13 0 0.0 0.0 0.00 0.00 0.00 90 1017.8
20260905035644 13 0 0.0 0.0 0.00 0.00 0.00 90 1018.0
20260905034926 13 0 0.0 0.0 0.00 0.00 0.00 88 1018.1
20260905034208 13 0 0.0 0.0 0.00 0.00 0.00 87 1018.6
20260905033206 14 0 0.0 0.0 0.00 0.00 0.00 84 1018.5
20260905032447 14 0 0.0 0.0 0.00 0.00 0.00 81 1018.8
20260905031729 15 0 0.0 0.0 0.00 0.00 0.00 78 1018.6
20260905031011 15 0 0.0 0.0 0.00 0.00 0.00 76 1018.2
20260905030254 15 0 0.0 0.0 0.00 0.00 0.00 75 1018.4
20260905025534 15 0 0.0 0.0 0.00 0.00 0.00 74 1018.4
20260905024814 15 0 0.0 0.0 0.00 0.00 0.00 72 1018.6
20260905024057 15 0 0.0 0.0 0.00 0.00 0.00 74 1018.1
20260905023338 15 0 0.0 0.0 0.00 0.00 0.00 74 1017.9
20260905022618 15 0 0.0 0.0 0.00 0.00 0.00 74 1017.8
20260905021900 15 0 0.0 0.0 0.00 0.00 0.00 75 1017.5
20260905021141 15 0 0.0 0.0 0.00 0.00 0.00 77 1017.4
20260905020422 15 0 0.0 0.0 0.00 0.00 0.00 76 1017.4
20260905015704 15 0 0.0 0.0 0.00 0.00 0.00 77 1017.6
20260905014946 15 0 0.0 0.0 0.00 0.00 0.00 74 1017.4
20260905013942 15 0 0.0 0.0 0.00 0.00 0.00 70 1017.5
20260905013223 16 0 0.0 0.0 0.00 0.00 0.00 66 1017.2
20260905012503 17 0 0.0 0.0 0.00 0.00 0.00 60 1016.9
20260905011741 17 0 0.0 0.0 0.00 0.00 0.00 62 1016.8
20260905011014 18 0 0.0 0.0 0.00 0.00 0.00 64 1017.0
20260905010245 18 0 0.0 0.0 0.00 0.00 0.00 64 1017.0
20260905005516 18 0 0.0 0.0 0.00 0.00 0.00 64 1017.0
20260905004750 18 0 0.0 0.0 0.00 0.00 0.00 65 1017.0
20260905004022 18 0 0.0 0.0 0.00 0.00 0.00 64 1016.9
20260905003254 18 0 0.0 0.0 0.00 0.00 0.00 64 1016.8
20260905001058 18 0 0.0 0.0 0.00 0.00 0.00 62 1016.6
20260905000329 18 0 0.0 0.0 0.00 0.00 0.00 64 1016.6
20260904235557 18 0 0.0 0.0 0.00 0.00 0.00 66 1016.5